TimeEST,TemperatureF,Dew PointF,Humidity,Sea Level PressureIn,VisibilityMPH,Wind Direction,Wind SpeedMPH,Gust SpeedMPH,PrecipitationIn,Events,Conditions,WindDirDegrees,DateUTC
12:20 AM,28.4,23.0,80,29.59,9.0,SW,6.9,-,0.00,Snow,Light Snow,230,2013-01-01 05:20:00
12:52 AM,28.9,23.0,78,29.63,3.0,Variable,3.5,-,0.00,Snow,Light Snow,0,2013-01-01 05:52:00
1:28 AM,28.4,24.8,86,29.59,2.0,WSW,4.6,-,0.00,Snow,Light Snow,240,2013-01-01 06:28:00
1:40 AM,28.4,24.8,86,29.59,4.0,SW,5.8,-,0.00,Snow,Light Snow,230,2013-01-01 06:40:00
1:48 AM,28.4,24.8,86,29.59,1.8,WSW,5.8,-,0.00,Snow,Light Snow,240,2013-01-01 06:48:00
1:52 AM,28.9,24.1,82,29.64,1.8,SW,5.8,-,0.00,Snow,Light Snow,220,2013-01-01 06:52:00
2:00 AM,28.4,24.8,86,29.60,2.0,SW,5.8,-,0.00,Snow,Light Snow,220,2013-01-01 07:00:00
2:05 AM,28.4,24.8,86,29.60,1.5,Calm,Calm,-,0.00,Snow,Light Snow,0,2013-01-01 07:05:00
2:14 AM,28.4,24.8,86,29.60,1.5,SW,3.5,-,0.00,Snow,Light Snow,220,2013-01-01 07:14:00
2:22 AM,28.4,24.8,86,29.60,1.0,SW,4.6,-,0.01,Snow,Light Snow,220,2013-01-01 07:22:00
2:26 AM,28.4,24.8,86,29.60,2.0,SW,5.8,-,0.01,Snow,Light Snow,220,2013-01-01 07:26:00
2:31 AM,28.4,24.8,86,29.59,5.0,SW,4.6,-,0.01,Snow,Light Snow,230,2013-01-01 07:31:00
2:41 AM,28.4,24.8,86,29.60,2.5,SW,4.6,-,0.01,Snow,Light Snow,230,2013-01-01 07:41:00
2:49 AM,28.4,24.8,86,29.59,7.0,SW,4.6,-,0.01,Snow,Light Snow,220,2013-01-01 07:49:00
2:52 AM,28.9,24.1,82,29.64,7.0,Variable,4.6,-,0.01,Snow,Light Snow,0,2013-01-01 07:52:00
3:47 AM,28.4,24.8,86,29.58,1.8,WSW,5.8,-,0.00,Snow,Light Snow,240,2013-01-01 08:47:00
3:48 AM,28.9,25.0,85,29.63,1.8,SW,4.6,-,0.00,Snow,Light Snow,230,2013-01-01 08:48:00
3:55 AM,28.4,24.8,86,29.58,1.0,WSW,5.8,-,0.00,Snow,Light Snow,250,2013-01-01 08:55:00
3:58 AM,28.4,24.8,86,29.58,0.8,Variable,5.8,-,0.00,Snow,Light Snow,0,2013-01-01 08:58:00
4:16 AM,28.4,24.8,86,29.60,1.0,WNW,13.8,21.9,0.01,Snow,Light Snow,290,2013-01-01 09:16:00
4:21 AM,28.4,23.0,80,29.60,2.0,West,18.4,25.3,0.01,Snow,Light Snow,280,2013-01-01 09:21:00
4:34 AM,28.4,23.0,80,29.60,6.0,West,13.8,19.6,0.01,Snow,Light Snow,280,2013-01-01 09:34:00
4:52 AM,28.0,21.0,75,29.66,10.0,WNW,9.2,-,0.01,,Overcast,290,2013-01-01 09:52:00
5:52 AM,26.1,19.0,75,29.71,10.0,NW,8.1,-,0.00,,Overcast,320,2013-01-01 10:52:00
6:52 AM,23.0,12.9,65,29.77,10.0,West,10.4,21.9,0.00,,Overcast,260,2013-01-01 11:52:00
7:47 AM,19.4,8.6,63,29.74,10.0,WNW,11.5,20.7,N/A,,Overcast,290,2013-01-01 12:47:00
7:52 AM,19.9,9.0,62,29.79,10.0,WNW,13.8,20.7,N/A,,Overcast,290,2013-01-01 12:52:00
8:29 AM,19.4,8.6,63,29.76,10.0,WSW,10.4,-,N/A,,Overcast,240,2013-01-01 13:29:00
8:47 AM,19.4,6.8,58,29.76,10.0,SW,10.4,23.0,N/A,,Overcast,230,2013-01-01 13:47:00
8:52 AM,19.0,7.0,59,29.81,10.0,SW,10.4,23.0,N/A,,Overcast,230,2013-01-01 13:52:00
9:52 AM,18.0,5.0,57,29.81,10.0,West,13.8,24.2,N/A,,Partly Cloudy,260,2013-01-01 14:52:00
10:52 AM,17.1,1.0,50,29.82,10.0,WNW,15.0,24.2,N/A,,Scattered Clouds,290,2013-01-01 15:52:00
11:52 AM,16.0,-0.0,49,29.80,10.0,West,16.1,28.8,N/A,,Clear,260,2013-01-01 16:52:00
12:52 PM,16.0,1.9,54,29.79,10.0,West,19.6,25.3,N/A,,Mostly Cloudy,270,2013-01-01 17:52:00
1:52 PM,15.1,1.0,54,29.79,10.0,West,13.8,24.2,N/A,,Mostly Cloudy,270,2013-01-01 18:52:00
2:52 PM,15.1,3.0,59,29.80,10.0,WNW,10.4,-,N/A,,Overcast,300,2013-01-01 19:52:00
3:52 PM,14.0,-0.0,54,29.81,10.0,West,11.5,19.6,N/A,,Mostly Cloudy,270,2013-01-01 20:52:00
4:52 PM,10.9,-0.0,61,29.82,10.0,West,9.2,-,N/A,,Clear,260,2013-01-01 21:52:00
5:52 PM,10.0,-0.9,61,29.85,10.0,SW,6.9,-,N/A,,Clear,230,2013-01-01 22:52:00
6:52 PM,9.0,-2.0,61,29.87,10.0,West,9.2,-,N/A,,Clear,270,2013-01-01 23:52:00
7:52 PM,7.0,-2.0,67,29.90,10.0,Variable,3.5,-,N/A,,Partly Cloudy,0,2013-01-02 00:52:00
8:27 PM,6.8,-2.2,67,29.84,10.0,Variable,3.5,-,N/A,,Mostly Cloudy,0,2013-01-02 01:27:00
8:52 PM,7.0,-2.0,67,29.91,10.0,West,6.9,-,N/A,,Overcast,270,2013-01-02 01:52:00
9:52 PM,6.1,-2.0,69,29.91,10.0,Calm,Calm,-,N/A,,Overcast,0,2013-01-02 02:52:00
10:00 PM,6.8,-2.2,67,29.84,10.0,SW,3.5,-,N/A,,Mostly Cloudy,230,2013-01-02 03:00:00
10:52 PM,7.0,-2.9,64,29.91,10.0,SW,4.6,-,N/A,,Overcast,220,2013-01-02 03:52:00
11:52 PM,8.1,-0.9,67,29.90,10.0,SW,4.6,-,N/A,,Overcast,230,2013-01-02 04:52:00